Regional Weather Roundup
Issued by NWS Portland, ME

Home | Current Version | Previous Version | Text Only | Print | Product List | Glossary On
Versions: 1 2 3 4 5 6 7 8 9 10 11 12 13 14 15 16 17 18 19 20 21 22 23 24 25 26 27 28 29 30 31 32 33 34 35 36 37 38 39 40 41 42 43 44 45 46 47 48 49 50
000
ASUS41 KGYX 280510
RWRGYX
WEATHER ROUNDUP FOR MAINE AND NEW HAMPSHIRE
NATIONAL WEATHER SERVICE GRAY ME
100 AM EDT TUE JUL 28 2015

MEZ002-005-006-010-012-015-018-020-021-024-026-027-029-280600-
MAINE

CITY           SKY/WX    TMP DP  RH WIND       PRES   REMARKS
PORTLAND       MOCLDY    63  63 100 SE5       29.98F FOG
SANFORD        MOCLDY    61  57  88 CALM      29.99F
BAR HARBOR     CLOUDY    63  63 100 S6        30.00F VSB 1/4
WISCASSET      FOG       63  63 100 CALM      30.01S VSB 1
ROCKLAND       CLOUDY    61  59  94 CALM      29.98F VSB<1/4
FRYEBURG       CLOUDY    65  64  97 CALM      29.99F FOG
LEWISTONAUBURN CLOUDY    63  61  94 CALM      29.99F
AUGUSTA        CLOUDY    65  64  97 SE3       29.99F FOG
BANGOR         CLOUDY    64  63  96 S6        29.98R
GREENVILLE       N/A     62  62 100 NE8       29.99F
MILLINOCKET    LGT RAIN  68  66  93 NW5       30.01R
HOULTON        CLOUDY    67  65  93 VRB5      29.96S
PRESQUE ISLE   CLOUDY    64  61  88 S7        29.96R
FRENCHVILLE    CLOUDY    61  60  97 S5        29.93S
CARIBOU        CLOUDY    64  62  93 S5        29.95R
$$

NHZ002-005-008-009-011-012-014-280600-
NEW HAMPSHIRE

CITY           SKY/WX    TMP DP  RH WIND       PRES   REMARKS
PORTSMOUTH     MOCLDY    67  65  91 CALM      29.97F
ROCHESTER      PTCLDY    67  64  90 CALM      29.98F
MANCHESTER     PTCLDY    71  67  87 S5        29.97F
CONCORD        PTCLDY    70  67  90 CALM      29.98F
LACONIA        PTCLDY    70  64  83 W3        29.98S
PLYMOUTH       FAIR      65  65 100 CALM      29.99S FOG
BERLIN         CLOUDY    66  63  90 CALM      30.01S
WHITEFIELD     CLOUDY    67  64  90 CALM      30.00F
JAFFREY        CLEAR     65  63  93 CALM      30.03S
KEENE          CLEAR     64  61  88 CALM      30.01S
LEBANON        CLEAR     66  63  90 CALM      29.99S FOG
MT WASHINGTON  FOG       54  54 100 W24         N/A  VSB 0
$$

VTZ005-007-008-280600-
VERMONT

CITY           SKY/WX    TMP DP  RH WIND       PRES   REMARKS
ST JOHNSBURY     N/A     69  65  86 MISG      29.98S
MONTPELIER     MOCLDY    65  61  87 CALM      30.04S
BURLINGTON     LGT RAIN  73  66  78 NW10      30.02R
$$

MAZ007-012-024-CTZ003-RIZ002-NYZ038-NYZ072-280600-
SOUTHERN NEW ENGLAND AND NY

CITY           SKY/WX    TMP DP  RH WIND       PRES   REMARKS
BOSTON         CLEAR     72  68  87 SW8       29.99F
WORCESTER      CLEAR     68  66  93 SW12      30.02F
NANTUCKET      CLEAR     69  66  90 S7        30.04F
PROVIDENCE     CLEAR     70  68  93 S6        30.02F
HARTFORD       PTCLDY    73  67  81 S7        30.00S
ALBANY         PTCLDY    74  68  81 S7        29.99S
NEW YORK CITY  MOCLDY    78  67  68 SW7       30.01S
$$

ANZ081-ANZ082-ANZ150-NHZ014-MEZ023>029-280600-
COASTAL MARINE OBSERVATIONS

STATION/POSITION TIME  TEMP    WIND        PRES    WAVE
                       AIR SEA DIR/SP/G            HT/PER
                 (UTC) (F)     (DEG/KT/KT) (MB)    (FT/S)
MOUNT DESERT ROC 0500   65     190/ 15/ 15 1016.0F
MATINICUS ROCK   0400   62     170/  6/  7 1015.8S
ISLE OF SHOALS   0400   72     210/ 13/ 13 1015.0F
JEFFREYS LEDGE   0403      65                N/A     3/ 8
CASHES LEDGE BUO 0450   67                 1015.5F   3/ 8
GEORGES BANK BUO 0450   69 66     CALM     1017.6S   3/ 7
$$

.............KEY..............
   WCI - WIND CHILL
   TC  - TEMPERATURE IN CELSIUS
   VSB - VISIBILITY IN MILES
   HX  - HEAT INDEX
   FAIR- INDICATES FEW OR NO CLOUDS BELOW 12,000 FT, WITH NO
         SIGNIFICANT WEATHER AND/OR OBSTRUCTIONS TO VISIBILITY.





USA.gov is the U.S. government's official web portal to all federal, state and local government web resources and services.